owner,sensor,date,latitude,longitude,vertical_datum,wind_speed,wind_to_direction,wind_speed_of_gust,qcFlag 
ADCP,ioos:station:wmo:42364:1,2016-09-01T00:30:00Z,29.0600,-88.0900,122.0,10.9,60.0,99.0,'11111222,11111222,11144222' 
ADCP,ioos:station:wmo:42364:1,2016-09-01T01:30:00Z,29.0600,-88.0900,122.0,10.0,64.0,99.0,'11111222,11111222,11144222' 
ADCP,ioos:station:wmo:42364:1,2016-09-01T02:30:00Z,29.0600,-88.0900,122.0,10.2,60.0,99.0,'11111222,11111222,11144222' 
ADCP,ioos:station:wmo:42364:1,2016-09-01T03:30:00Z,29.0600,-88.0900,122.0,9.9,60.0,99.0,'11111222,11111222,11144222' 
ADCP,ioos:station:wmo:42364:1,2016-09-01T04:30:00Z,29.0600,-88.0900,122.0,7.8,75.0,99.0,'11111222,11111222,11144222' 
ADCP,ioos:station:wmo:42364:1,2016-09-01T05:30:00Z,29.0600,-88.0900,122.0,7.5,73.0,99.0,'11111222,11111222,11144222' 
ADCP,ioos:station:wmo:42364:1,2016-09-01T06:30:00Z,29.0600,-88.0900,122.0,7.4,68.0,99.0,'11111222,11111222,11144222' 
ADCP,ioos:station:wmo:42364:1,2016-09-01T07:30:00Z,29.0600,-88.0900,122.0,6.4,65.0,99.0,'11111222,11111222,11144222' 
ADCP,ioos:station:wmo:42364:1,2016-09-01T08:30:00Z,29.0600,-88.0900,122.0,6.6,54.0,99.0,'11111222,11111222,11144222' 
ADCP,ioos:station:wmo:42364:1,2016-09-01T09:30:00Z,29.0600,-88.0900,122.0,6.2,50.0,99.0,'11111222,11111222,11144222' 
ADCP,ioos:station:wmo:42364:1,2016-09-01T10:30:00Z,29.0600,-88.0900,122.0,6.1,52.0,99.0,'11111222,11111222,11144222' 
ADCP,ioos:station:wmo:42364:1,2016-09-01T11:30:00Z,29.0600,-88.0900,122.0,6.5,45.0,99.0,'11111222,11111222,11144222' 
ADCP,ioos:station:wmo:42364:1,2016-09-01T12:30:00Z,29.0600,-88.0900,122.0,8.0,53.0,99.0,'11111222,11111222,11144222' 
ADCP,ioos:station:wmo:42364:1,2016-09-01T13:30:00Z,29.0600,-88.0900,122.0,9.3,55.0,99.0,'11111222,11111222,11144222' 
ADCP,ioos:station:wmo:42364:1,2016-09-01T14:30:00Z,29.0600,-88.0900,122.0,9.2,48.0,99.0,'11111222,11111222,11144222' 
ADCP,ioos:station:wmo:42364:1,2016-09-01T15:30:00Z,29.0600,-88.0900,122.0,9.9,53.0,99.0,'11111222,11111222,11144222' 
ADCP,ioos:station:wmo:42364:1,2016-09-01T16:30:00Z,29.0600,-88.0900,122.0,9.4,50.0,99.0,'11111222,11111222,11144222' 
ADCP,ioos:station:wmo:42364:1,2016-09-01T17:30:00Z,29.0600,-88.0900,122.0,10.5,44.0,99.0,'11111222,11111222,11144222' 
ADCP,ioos:station:wmo:42364:1,2016-09-01T18:30:00Z,29.0600,-88.0900,122.0,10.7,42.0,99.0,'11111222,11111222,11144222' 
ADCP,ioos:station:wmo:42364:1,2016-09-01T19:30:00Z,29.0600,-88.0900,122.0,9.7,36.0,99.0,'11111222,11111222,11144222' 
ADCP,ioos:station:wmo:42364:1,2016-09-01T20:30:00Z,29.0600,-88.0900,122.0,9.9,35.0,99.0,'11111222,11111222,11144222' 
ADCP,ioos:station:wmo:42364:1,2016-09-01T21:30:00Z,29.0600,-88.0900,122.0,10.4,28.0,99.0,'11111222,11111222,11144222' 
ADCP,ioos:station:wmo:42364:1,2016-09-01T22:30:00Z,29.0600,-88.0900,122.0,10.3,30.0,99.0,'11111222,11111222,11144222' 
ADCP,ioos:station:wmo:42364:1,2016-09-01T23:30:00Z,29.0600,-88.0900,122.0,8.0,24.0,99.0,'11111222,11111222,11144222' 
ADCP,ioos:station:wmo:42364:1,2016-09-02T00:30:00Z,29.0600,-88.0900,122.0,6.3,11.0,99.0,'11111222,11111222,11144222' 
ADCP,ioos:station:wmo:42364:1,2016-09-02T01:30:00Z,29.0600,-88.0900,122.0,4.9,14.0,99.0,'11111222,11111222,11144222' 
ADCP,ioos:station:wmo:42364:1,2016-09-02T02:30:00Z,29.0600,-88.0900,122.0,2.9,17.0,99.0,'11111222,11111222,11144222' 
ADCP,ioos:station:wmo:42364:1,2016-09-02T03:30:00Z,29.0600,-88.0900,122.0,2.4,1.0,99.0,'11111222,11111222,11144222' 
ADCP,ioos:station:wmo:42364:1,2016-09-02T04:30:00Z,29.0600,-88.0900,122.0,0.4,359.0,99.0,'11111222,11111222,11144222' 
ADCP,ioos:station:wmo:42364:1,2016-09-02T05:30:00Z,29.0600,-88.0900,122.0,0.4,359.0,99.0,'11111222,11111222,11144222' 
ADCP,ioos:station:wmo:42364:1,2016-09-02T06:30:00Z,29.0600,-88.0900,122.0,0.1,360.0,99.0,'11111222,11144222,11144222' 
ADCP,ioos:station:wmo:42364:1,2016-09-02T07:30:00Z,29.0600,-88.0900,122.0,0.4,360.0,99.0,'11111222,11144222,11144222' 
ADCP,ioos:station:wmo:42364:1,2016-09-02T08:30:00Z,29.0600,-88.0900,122.0,0.0,0.0,99.0,'11111222,11111222,11144222' 
ADCP,ioos:station:wmo:42364:1,2016-09-02T09:30:00Z,29.0600,-88.0900,122.0,0.0,0.0,99.0,'11111222,11111222,11144222' 
ADCP,ioos:station:wmo:42364:1,2016-09-02T10:30:00Z,29.0600,-88.0900,122.0,0.7,331.0,99.0,'11111222,11111222,11144222' 
ADCP,ioos:station:wmo:42364:1,2016-09-02T11:30:00Z,29.0600,-88.0900,122.0,2.3,348.0,99.0,'11111222,11111222,11144222' 
ADCP,ioos:station:wmo:42364:1,2016-09-02T12:30:00Z,29.0600,-88.0900,122.0,3.7,249.0,99.0,'11111222,11111222,11144222' 
ADCP,ioos:station:wmo:42364:1,2016-09-02T13:30:00Z,29.0600,-88.0900,122.0,3.5,249.0,99.0,'11111222,11111222,11144222' 
ADCP,ioos:station:wmo:42364:1,2016-09-02T14:30:00Z,29.0600,-88.0900,122.0,3.3,258.0,99.0,'11111222,11111222,11144222' 
ADCP,ioos:station:wmo:42364:1,2016-09-02T15:30:00Z,29.0600,-88.0900,122.0,2.1,284.0,99.0,'11111222,11111222,11144222' 
ADCP,ioos:station:wmo:42364:1,2016-09-02T16:30:00Z,29.0600,-88.0900,122.0,2.2,280.0,99.0,'11111222,11111222,11144222' 
ADCP,ioos:station:wmo:42364:1,2016-09-02T17:30:00Z,29.0600,-88.0900,122.0,2.6,270.0,99.0,'11111222,11111222,11144222' 
ADCP,ioos:station:wmo:42364:1,2016-09-02T18:30:00Z,29.0600,-88.0900,122.0,3.8,252.0,99.0,'11111222,11111222,11144222' 
ADCP,ioos:station:wmo:42364:1,2016-09-02T19:30:00Z,29.0600,-88.0900,122.0,5.1,246.0,99.0,'11111222,11111222,11144222' 
ADCP,ioos:station:wmo:42364:1,2016-09-02T20:30:00Z,29.0600,-88.0900,122.0,3.3,262.0,99.0,'11111222,11111222,11144222' 
ADCP,ioos:station:wmo:42364:1,2016-09-02T21:30:00Z,29.0600,-88.0900,122.0,3.0,253.0,99.0,'11111222,11111222,11144222' 
ADCP,ioos:station:wmo:42364:1,2016-09-02T22:30:00Z,29.0600,-88.0900,122.0,4.0,238.0,99.0,'11111222,11111222,11144222' 
ADCP,ioos:station:wmo:42364:1,2016-09-02T23:30:00Z,29.0600,-88.0900,122.0,4.3,242.0,99.0,'11111222,11111222,11144222' 
ADCP,ioos:station:wmo:42364:1,2016-09-03T00:30:00Z,29.0600,-88.0900,122.0,3.7,231.0,99.0,'11111222,11111222,11144222' 
ADCP,ioos:station:wmo:42364:1,2016-09-03T02:30:00Z,29.0600,-88.0900,122.0,4.3,241.0,99.0,'11111222,11111222,11144222' 
ADCP,ioos:station:wmo:42364:1,2016-09-03T03:30:00Z,29.0600,-88.0900,122.0,4.3,231.0,99.0,'11111222,11111222,11144222' 
ADCP,ioos:station:wmo:42364:1,2016-09-03T04:30:00Z,29.0600,-88.0900,122.0,4.5,223.0,99.0,'11111222,11111222,11144222' 
ADCP,ioos:station:wmo:42364:1,2016-09-03T05:30:00Z,29.0600,-88.0900,122.0,4.7,225.0,99.0,'11111222,11111222,11144222' 
ADCP,ioos:station:wmo:42364:1,2016-09-03T06:30:00Z,29.0600,-88.0900,122.0,4.8,229.0,99.0,'11111222,11111222,11144222' 
ADCP,ioos:station:wmo:42364:1,2016-09-03T07:30:00Z,29.0600,-88.0900,122.0,4.5,229.0,99.0,'11111222,11111222,11144222' 
ADCP,ioos:station:wmo:42364:1,2016-09-03T08:30:00Z,29.0600,-88.0900,122.0,4.4,223.0,99.0,'11111222,11111222,11144222' 
ADCP,ioos:station:wmo:42364:1,2016-09-03T09:30:00Z,29.0600,-88.0900,122.0,4.4,215.0,99.0,'11111222,11111222,11144222' 
ADCP,ioos:station:wmo:42364:1,2016-09-03T10:30:00Z,29.0600,-88.0900,122.0,4.1,223.0,99.0,'11111222,11111222,11144222' 
ADCP,ioos:station:wmo:42364:1,2016-09-03T11:30:00Z,29.0600,-88.0900,122.0,3.8,212.0,99.0,'11111222,11111222,11144222' 
ADCP,ioos:station:wmo:42364:1,2016-09-03T12:30:00Z,29.0600,-88.0900,122.0,4.3,224.0,99.0,'11111222,11111222,11144222' 
ADCP,ioos:station:wmo:42364:1,2016-09-03T13:30:00Z,29.0600,-88.0900,122.0,2.6,254.0,99.0,'11111222,11111222,11144222' 
ADCP,ioos:station:wmo:42364:1,2016-09-03T14:30:00Z,29.0600,-88.0900,122.0,1.1,282.0,99.0,'11111222,11111222,11144222' 
ADCP,ioos:station:wmo:42364:1,2016-09-03T15:30:00Z,29.0600,-88.0900,122.0,0.8,309.0,99.0,'11111222,11111222,11144222' 
ADCP,ioos:station:wmo:42364:1,2016-09-03T16:30:00Z,29.0600,-88.0900,122.0,2.8,237.0,99.0,'11111222,11111222,11144222' 
ADCP,ioos:station:wmo:42364:1,2016-09-03T17:30:00Z,29.0600,-88.0900,122.0,2.1,232.0,99.0,'11111222,11111222,11144222' 
ADCP,ioos:station:wmo:42364:1,2016-09-03T18:30:00Z,29.0600,-88.0900,122.0,3.4,232.0,99.0,'11111222,11111222,11144222' 
ADCP,ioos:station:wmo:42364:1,2016-09-03T19:30:00Z,29.0600,-88.0900,122.0,5.3,163.0,99.0,'11111222,11111222,11144222' 
ADCP,ioos:station:wmo:42364:1,2016-09-03T20:30:00Z,29.0600,-88.0900,122.0,2.8,18.0,99.0,'11111222,11111222,11144222' 
ADCP,ioos:station:wmo:42364:1,2016-09-03T21:30:00Z,29.0600,-88.0900,122.0,0.9,50.0,99.0,'11111222,11111222,11144222' 
ADCP,ioos:station:wmo:42364:1,2016-09-03T22:30:00Z,29.0600,-88.0900,122.0,6.6,173.0,99.0,'11111222,11111222,11144222' 
ADCP,ioos:station:wmo:42364:1,2016-09-03T23:30:00Z,29.0600,-88.0900,122.0,7.0,200.0,99.0,'11111222,11111222,11144222' 
ADCP,ioos:station:wmo:42364:1,2016-09-04T00:30:00Z,29.0600,-88.0900,122.0,4.6,201.0,99.0,'11111222,11111222,11144222' 
ADCP,ioos:station:wmo:42364:1,2016-09-04T01:30:00Z,29.0600,-88.0900,122.0,7.3,210.0,99.0,'11111222,11111222,11144222' 
ADCP,ioos:station:wmo:42364:1,2016-09-04T02:30:00Z,29.0600,-88.0900,122.0,8.0,215.0,99.0,'11111222,11111222,11144222' 
ADCP,ioos:station:wmo:42364:1,2016-09-04T03:30:00Z,29.0600,-88.0900,122.0,6.6,217.0,99.0,'11111222,11111222,11144222' 
ADCP,ioos:station:wmo:42364:1,2016-09-04T04:30:00Z,29.0600,-88.0900,122.0,3.7,219.0,99.0,'11111222,11111222,11144222' 
ADCP,ioos:station:wmo:42364:1,2016-09-04T05:30:00Z,29.0600,-88.0900,122.0,5.0,219.0,99.0,'11111222,11111222,11144222' 
ADCP,ioos:station:wmo:42364:1,2016-09-04T06:30:00Z,29.0600,-88.0900,122.0,5.4,222.0,99.0,'11111222,11111222,11144222' 
ADCP,ioos:station:wmo:42364:1,2016-09-04T07:30:00Z,29.0600,-88.0900,122.0,5.8,215.0,99.0,'11111222,11111222,11144222' 
ADCP,ioos:station:wmo:42364:1,2016-09-04T08:30:00Z,29.0600,-88.0900,122.0,6.2,209.0,99.0,'11111222,11111222,11144222' 
ADCP,ioos:station:wmo:42364:1,2016-09-04T09:30:00Z,29.0600,-88.0900,122.0,6.6,208.0,99.0,'11111222,11111222,11144222' 
ADCP,ioos:station:wmo:42364:1,2016-09-04T10:30:00Z,29.0600,-88.0900,122.0,6.5,202.0,99.0,'11111222,11111222,11144222' 
ADCP,ioos:station:wmo:42364:1,2016-09-04T11:30:00Z,29.0600,-88.0900,122.0,6.2,200.0,99.0,'11111222,11111222,11144222' 
ADCP,ioos:station:wmo:42364:1,2016-09-04T12:30:00Z,29.0600,-88.0900,122.0,5.2,195.0,99.0,'11111222,11111222,11144222' 
ADCP,ioos:station:wmo:42364:1,2016-09-04T13:30:00Z,29.0600,-88.0900,122.0,5.1,219.0,99.0,'11111222,11111222,11144222' 
ADCP,ioos:station:wmo:42364:1,2016-09-04T14:30:00Z,29.0600,-88.0900,122.0,6.5,194.0,99.0,'11111222,11111222,11144222' 
ADCP,ioos:station:wmo:42364:1,2016-09-04T15:30:00Z,29.0600,-88.0900,122.0,5.3,195.0,99.0,'11111222,11111222,11144222' 
ADCP,ioos:station:wmo:42364:1,2016-09-04T16:30:00Z,29.0600,-88.0900,122.0,4.5,186.0,99.0,'11111222,11111222,11144222' 
ADCP,ioos:station:wmo:42364:1,2016-09-04T17:30:00Z,29.0600,-88.0900,122.0,7.8,219.0,99.0,'11111222,11111222,11144222' 
ADCP,ioos:station:wmo:42364:1,2016-09-04T18:30:00Z,29.0600,-88.0900,122.0,5.7,215.0,99.0,'11111222,11111222,11144222' 
ADCP,ioos:station:wmo:42364:1,2016-09-04T19:30:00Z,29.0600,-88.0900,122.0,3.2,100.0,99.0,'11111222,11111222,11144222' 
ADCP,ioos:station:wmo:42364:1,2016-09-04T20:30:00Z,29.0600,-88.0900,122.0,2.5,149.0,99.0,'11111222,11111222,11144222' 
ADCP,ioos:station:wmo:42364:1,2016-09-04T21:30:00Z,29.0600,-88.0900,122.0,1.8,84.0,99.0,'11111222,11111222,11144222' 
ADCP,ioos:station:wmo:42364:1,2016-09-04T22:30:00Z,29.0600,-88.0900,122.0,2.9,89.0,99.0,'11111222,11111222,11144222' 
ADCP,ioos:station:wmo:42364:1,2016-09-04T23:30:00Z,29.0600,-88.0900,122.0,2.9,106.0,99.0,'11111222,11111222,11144222' 
ADCP,ioos:station:wmo:42364:1,2016-09-05T00:30:00Z,29.0600,-88.0900,122.0,2.5,145.0,99.0,'11111222,11111222,11144222' 
ADCP,ioos:station:wmo:42364:1,2016-09-05T01:30:00Z,29.0600,-88.0900,122.0,2.5,155.0,99.0,'11111222,11111222,11144222' 
ADCP,ioos:station:wmo:42364:1,2016-09-05T02:30:00Z,29.0600,-88.0900,122.0,3.1,174.0,99.0,'11111222,11111222,11144222' 
ADCP,ioos:station:wmo:42364:1,2016-09-05T03:30:00Z,29.0600,-88.0900,122.0,2.9,180.0,99.0,'11111222,11111222,11144222' 
ADCP,ioos:station:wmo:42364:1,2016-09-05T04:30:00Z,29.0600,-88.0900,122.0,3.6,177.0,99.0,'11111222,11111222,11144222' 
ADCP,ioos:station:wmo:42364:1,2016-09-05T05:30:00Z,29.0600,-88.0900,122.0,4.4,168.0,99.0,'11111222,11111222,11144222' 
ADCP,ioos:station:wmo:42364:1,2016-09-05T06:30:00Z,29.0600,-88.0900,122.0,3.8,190.0,99.0,'11111222,11111222,11144222' 
ADCP,ioos:station:wmo:42364:1,2016-09-05T07:30:00Z,29.0600,-88.0900,122.0,3.2,76.0,99.0,'11111222,11111222,11144222' 
ADCP,ioos:station:wmo:42364:1,2016-09-05T08:30:00Z,29.0600,-88.0900,122.0,2.7,103.0,99.0,'11111222,11111222,11144222' 
ADCP,ioos:station:wmo:42364:1,2016-09-05T09:30:00Z,29.0600,-88.0900,122.0,5.2,150.0,99.0,'11111222,11111222,11144222' 
ADCP,ioos:station:wmo:42364:1,2016-09-05T10:30:00Z,29.0600,-88.0900,122.0,3.7,159.0,99.0,'11111222,11111222,11144222' 
ADCP,ioos:station:wmo:42364:1,2016-09-05T11:30:00Z,29.0600,-88.0900,122.0,3.1,126.0,99.0,'11111222,11111222,11144222' 
ADCP,ioos:station:wmo:42364:1,2016-09-05T12:30:00Z,29.0600,-88.0900,122.0,3.3,131.0,99.0,'11111222,11111222,11144222' 
ADCP,ioos:station:wmo:42364:1,2016-09-05T13:30:00Z,29.0600,-88.0900,122.0,3.2,127.0,99.0,'11111222,11111222,11144222' 
ADCP,ioos:station:wmo:42364:1,2016-09-05T14:30:00Z,29.0600,-88.0900,122.0,5.7,144.0,99.0,'11111222,11111222,11144222' 
ADCP,ioos:station:wmo:42364:1,2016-09-05T15:30:00Z,29.0600,-88.0900,122.0,6.8,186.0,99.0,'11111222,11111222,11144222' 
ADCP,ioos:station:wmo:42364:1,2016-09-05T16:30:00Z,29.0600,-88.0900,122.0,4.1,158.0,99.0,'11111222,11111222,11144222' 
ADCP,ioos:station:wmo:42364:1,2016-09-05T17:30:00Z,29.0600,-88.0900,122.0,7.2,97.0,99.0,'11111222,11111222,11144222' 
ADCP,ioos:station:wmo:42364:1,2016-09-05T18:30:00Z,29.0600,-88.0900,122.0,5.8,127.0,99.0,'11111222,11111222,11144222' 
ADCP,ioos:station:wmo:42364:1,2016-09-05T19:30:00Z,29.0600,-88.0900,122.0,3.7,127.0,99.0,'11111222,11111222,11144222' 
ADCP,ioos:station:wmo:42364:1,2016-09-05T20:30:00Z,29.0600,-88.0900,122.0,1.0,71.0,99.0,'11111222,11111222,11144222' 
ADCP,ioos:station:wmo:42364:1,2016-09-05T21:30:00Z,29.0600,-88.0900,122.0,0.3,22.0,99.0,'11111222,11111222,11144222' 
ADCP,ioos:station:wmo:42364:1,2016-09-05T22:30:00Z,29.0600,-88.0900,122.0,1.3,28.0,99.0,'11111222,11111222,11144222' 
ADCP,ioos:station:wmo:42364:1,2016-09-05T23:30:00Z,29.0600,-88.0900,122.0,3.6,38.0,99.0,'11111222,11111222,11144222' 
ADCP,ioos:station:wmo:42364:1,2016-09-06T00:30:00Z,29.0600,-88.0900,122.0,4.2,26.0,99.0,'11111222,11111222,11144222' 
ADCP,ioos:station:wmo:42364:1,2016-09-06T01:30:00Z,29.0600,-88.0900,122.0,5.1,33.0,99.0,'11111222,11111222,11144222' 
ADCP,ioos:station:wmo:42364:1,2016-09-06T02:30:00Z,29.0600,-88.0900,122.0,5.9,47.0,99.0,'11111222,11111222,11144222' 
ADCP,ioos:station:wmo:42364:1,2016-09-06T03:30:00Z,29.0600,-88.0900,122.0,6.4,56.0,99.0,'11111222,11111222,11144222' 
ADCP,ioos:station:wmo:42364:1,2016-09-06T04:30:00Z,29.0600,-88.0900,122.0,7.0,75.0,99.0,'11111222,11111222,11144222' 
ADCP,ioos:station:wmo:42364:1,2016-09-06T05:30:00Z,29.0600,-88.0900,122.0,7.6,76.0,99.0,'11111222,11111222,11144222' 
ADCP,ioos:station:wmo:42364:1,2016-09-06T06:30:00Z,29.0600,-88.0900,122.0,6.6,82.0,99.0,'11111222,11111222,11144222' 
ADCP,ioos:station:wmo:42364:1,2016-09-06T07:30:00Z,29.0600,-88.0900,122.0,5.9,86.0,99.0,'11111222,11111222,11144222' 
ADCP,ioos:station:wmo:42364:1,2016-09-06T08:30:00Z,29.0600,-88.0900,122.0,5.5,93.0,99.0,'11111222,11111222,11144222' 
ADCP,ioos:station:wmo:42364:1,2016-09-06T10:30:00Z,29.0600,-88.0900,122.0,5.6,128.0,99.0,'11111222,11111222,11144222' 
ADCP,ioos:station:wmo:42364:1,2016-09-06T11:30:00Z,29.0600,-88.0900,122.0,4.8,133.0,99.0,'11111222,11111222,11144222' 
ADCP,ioos:station:wmo:42364:1,2016-09-06T12:30:00Z,29.0600,-88.0900,122.0,4.9,133.0,99.0,'11111222,11111222,11144222' 
ADCP,ioos:station:wmo:42364:1,2016-09-06T13:30:00Z,29.0600,-88.0900,122.0,4.2,140.0,99.0,'11111222,11111222,11144222' 
ADCP,ioos:station:wmo:42364:1,2016-09-06T14:30:00Z,29.0600,-88.0900,122.0,4.2,132.0,99.0,'11111222,11111222,11144222' 
ADCP,ioos:station:wmo:42364:1,2016-09-06T15:30:00Z,29.0600,-88.0900,122.0,4.0,140.0,99.0,'11111222,11111222,11144222' 
ADCP,ioos:station:wmo:42364:1,2016-09-06T16:30:00Z,29.0600,-88.0900,122.0,2.5,124.0,99.0,'11111222,11111222,11144222' 
ADCP,ioos:station:wmo:42364:1,2016-09-06T17:30:00Z,29.0600,-88.0900,122.0,2.5,75.0,99.0,'11111222,11111222,11144222' 
ADCP,ioos:station:wmo:42364:1,2016-09-06T18:30:00Z,29.0600,-88.0900,122.0,7.7,71.0,99.0,'11111222,11111222,11144222' 
ADCP,ioos:station:wmo:42364:1,2016-09-06T19:30:00Z,29.0600,-88.0900,122.0,4.8,130.0,99.0,'11111222,11111222,11144222' 
ADCP,ioos:station:wmo:42364:1,2016-09-06T20:30:00Z,29.0600,-88.0900,122.0,2.2,115.0,99.0,'11111222,11111222,11144222' 
ADCP,ioos:station:wmo:42364:1,2016-09-06T21:30:00Z,29.0600,-88.0900,122.0,3.2,105.0,99.0,'11111222,11111222,11144222' 
ADCP,ioos:station:wmo:42364:1,2016-09-06T22:30:00Z,29.0600,-88.0900,122.0,5.0,128.0,99.0,'11111222,11111222,11144222' 
ADCP,ioos:station:wmo:42364:1,2016-09-06T23:30:00Z,29.0600,-88.0900,122.0,6.3,118.0,99.0,'11111222,11111222,11144222' 
ADCP,ioos:station:wmo:42364:1,2016-09-07T00:30:00Z,29.0600,-88.0900,122.0,5.9,110.0,99.0,'11111222,11111222,11144222' 
ADCP,ioos:station:wmo:42364:1,2016-09-07T01:30:00Z,29.0600,-88.0900,122.0,6.3,101.0,99.0,'11111222,11111222,11144222' 
ADCP,ioos:station:wmo:42364:1,2016-09-07T02:30:00Z,29.0600,-88.0900,122.0,6.3,104.0,99.0,'11111222,11111222,11144222' 
ADCP,ioos:station:wmo:42364:1,2016-09-07T03:30:00Z,29.0600,-88.0900,122.0,5.7,97.0,99.0,'11111222,11111222,11144222' 
ADCP,ioos:station:wmo:42364:1,2016-09-07T04:30:00Z,29.0600,-88.0900,122.0,5.2,102.0,99.0,'11111222,11111222,11144222' 
ADCP,ioos:station:wmo:42364:1,2016-09-07T05:30:00Z,29.0600,-88.0900,122.0,5.3,99.0,99.0,'11111222,11111222,11144222' 
ADCP,ioos:station:wmo:42364:1,2016-09-07T06:30:00Z,29.0600,-88.0900,122.0,5.3,104.0,99.0,'11111222,11111222,11144222' 
ADCP,ioos:station:wmo:42364:1,2016-09-07T07:30:00Z,29.0600,-88.0900,122.0,5.9,108.0,99.0,'11111222,11111222,11144222' 
ADCP,ioos:station:wmo:42364:1,2016-09-07T08:30:00Z,29.0600,-88.0900,122.0,6.0,113.0,99.0,'11111222,11111222,11144222' 
ADCP,ioos:station:wmo:42364:1,2016-09-07T09:30:00Z,29.0600,-88.0900,122.0,5.5,103.0,99.0,'11111222,11111222,11144222' 
ADCP,ioos:station:wmo:42364:1,2016-09-07T10:30:00Z,29.0600,-88.0900,122.0,5.6,91.0,99.0,'11111222,11111222,11144222' 
ADCP,ioos:station:wmo:42364:1,2016-09-07T11:30:00Z,29.0600,-88.0900,122.0,5.9,80.0,99.0,'11111222,11111222,11144222' 
ADCP,ioos:station:wmo:42364:1,2016-09-07T12:30:00Z,29.0600,-88.0900,122.0,6.3,81.0,99.0,'11111222,11111222,11144222' 
ADCP,ioos:station:wmo:42364:1,2016-09-07T13:30:00Z,29.0600,-88.0900,122.0,6.4,79.0,99.0,'11111222,11111222,11144222' 
ADCP,ioos:station:wmo:42364:1,2016-09-07T14:30:00Z,29.0600,-88.0900,122.0,6.1,77.0,99.0,'11111222,11111222,11144222' 
ADCP,ioos:station:wmo:42364:1,2016-09-07T15:30:00Z,29.0600,-88.0900,122.0,5.7,77.0,99.0,'11111222,11111222,11144222' 
ADCP,ioos:station:wmo:42364:1,2016-09-07T16:30:00Z,29.0600,-88.0900,122.0,6.0,77.0,99.0,'11111222,11111222,11144222' 
ADCP,ioos:station:wmo:42364:1,2016-09-07T17:30:00Z,29.0600,-88.0900,122.0,5.7,84.0,99.0,'11111222,11111222,11144222' 
ADCP,ioos:station:wmo:42364:1,2016-09-07T18:30:00Z,29.0600,-88.0900,122.0,6.1,69.0,99.0,'11111222,11111222,11144222' 
ADCP,ioos:station:wmo:42364:1,2016-09-07T19:30:00Z,29.0600,-88.0900,122.0,6.4,65.0,99.0,'11111222,11111222,11144222' 
ADCP,ioos:station:wmo:42364:1,2016-09-07T20:30:00Z,29.0600,-88.0900,122.0,5.8,65.0,99.0,'11111222,11111222,11144222' 
ADCP,ioos:station:wmo:42364:1,2016-09-07T21:30:00Z,29.0600,-88.0900,122.0,6.5,65.0,99.0,'11111222,11111222,11144222' 
ADCP,ioos:station:wmo:42364:1,2016-09-07T22:30:00Z,29.0600,-88.0900,122.0,7.5,65.0,99.0,'11111222,11111222,11144222' 
ADCP,ioos:station:wmo:42364:1,2016-09-07T23:30:00Z,29.0600,-88.0900,122.0,6.5,65.0,99.0,'11111222,11111222,11144222' 
ADCP,ioos:station:wmo:42364:1,2016-09-08T00:30:00Z,29.0600,-88.0900,122.0,5.2,72.0,99.0,'11111222,11111222,11144222' 
ADCP,ioos:station:wmo:42364:1,2016-09-08T01:30:00Z,29.0600,-88.0900,122.0,4.5,78.0,99.0,'11111222,11111222,11144222' 
ADCP,ioos:station:wmo:42364:1,2016-09-08T02:30:00Z,29.0600,-88.0900,122.0,4.2,94.0,99.0,'11111222,11111222,11144222' 
ADCP,ioos:station:wmo:42364:1,2016-09-08T03:30:00Z,29.0600,-88.0900,122.0,3.4,97.0,99.0,'11111222,11111222,11144222' 
ADCP,ioos:station:wmo:42364:1,2016-09-08T04:30:00Z,29.0600,-88.0900,122.0,2.9,124.0,99.0,'11111222,11111222,11144222' 
ADCP,ioos:station:wmo:42364:1,2016-09-08T05:30:00Z,29.0600,-88.0900,122.0,3.2,123.0,99.0,'11111222,11111222,11144222' 
ADCP,ioos:station:wmo:42364:1,2016-09-08T06:30:00Z,29.0600,-88.0900,122.0,3.9,109.0,99.0,'11111222,11111222,11144222' 
ADCP,ioos:station:wmo:42364:1,2016-09-08T07:30:00Z,29.0600,-88.0900,122.0,4.4,110.0,99.0,'11111222,11111222,11144222' 
ADCP,ioos:station:wmo:42364:1,2016-09-08T08:30:00Z,29.0600,-88.0900,122.0,4.6,122.0,99.0,'11111222,11111222,11144222' 
ADCP,ioos:station:wmo:42364:1,2016-09-08T09:30:00Z,29.0600,-88.0900,122.0,4.4,114.0,99.0,'11111222,11111222,11144222' 
ADCP,ioos:station:wmo:42364:1,2016-09-08T10:30:00Z,29.0600,-88.0900,122.0,3.2,120.0,99.0,'11111222,11111222,11144222' 
ADCP,ioos:station:wmo:42364:1,2016-09-08T11:30:00Z,29.0600,-88.0900,122.0,3.4,123.0,99.0,'11111222,11111222,11144222' 
ADCP,ioos:station:wmo:42364:1,2016-09-08T12:30:00Z,29.0600,-88.0900,122.0,4.5,112.0,99.0,'11111222,11111222,11144222' 
ADCP,ioos:station:wmo:42364:1,2016-09-08T13:30:00Z,29.0600,-88.0900,122.0,4.9,111.0,99.0,'11111222,11111222,11144222' 
ADCP,ioos:station:wmo:42364:1,2016-09-08T14:30:00Z,29.0600,-88.0900,122.0,4.9,109.0,99.0,'11111222,11111222,11144222' 
ADCP,ioos:station:wmo:42364:1,2016-09-08T15:30:00Z,29.0600,-88.0900,122.0,4.7,97.0,99.0,'11111222,11111222,11144222' 
ADCP,ioos:station:wmo:42364:1,2016-09-08T16:30:00Z,29.0600,-88.0900,122.0,5.1,95.0,99.0,'11111222,11111222,11144222' 
ADCP,ioos:station:wmo:42364:1,2016-09-08T17:30:00Z,29.0600,-88.0900,122.0,4.9,94.0,99.0,'11111222,11111222,11144222' 
ADCP,ioos:station:wmo:42364:1,2016-09-08T18:30:00Z,29.0600,-88.0900,122.0,4.7,96.0,99.0,'11111222,11111222,11144222' 
ADCP,ioos:station:wmo:42364:1,2016-09-08T19:30:00Z,29.0600,-88.0900,122.0,4.2,90.0,99.0,'11111222,11111222,11144222' 
ADCP,ioos:station:wmo:42364:1,2016-09-08T20:30:00Z,29.0600,-88.0900,122.0,3.5,89.0,99.0,'11111222,11111222,11144222' 
ADCP,ioos:station:wmo:42364:1,2016-09-08T21:30:00Z,29.0600,-88.0900,122.0,4.0,90.0,99.0,'11111222,11111222,11144222' 
ADCP,ioos:station:wmo:42364:1,2016-09-08T22:30:00Z,29.0600,-88.0900,122.0,4.6,90.0,99.0,'11111222,11111222,11144222' 
ADCP,ioos:station:wmo:42364:1,2016-09-08T23:30:00Z,29.0600,-88.0900,122.0,4.5,87.0,99.0,'11111222,11111222,11144222' 
ADCP,ioos:station:wmo:42364:1,2016-09-09T00:30:00Z,29.0600,-88.0900,122.0,5.4,82.0,99.0,'11111222,11111222,11144222' 
ADCP,ioos:station:wmo:42364:1,2016-09-09T01:30:00Z,29.0600,-88.0900,122.0,6.7,88.0,99.0,'11111222,11111222,11144222' 
ADCP,ioos:station:wmo:42364:1,2016-09-09T02:30:00Z,29.0600,-88.0900,122.0,6.7,108.0,99.0,'11111222,11111222,11144222' 
ADCP,ioos:station:wmo:42364:1,2016-09-09T03:30:00Z,29.0600,-88.0900,122.0,6.5,117.0,99.0,'11111222,11111222,11144222' 
ADCP,ioos:station:wmo:42364:1,2016-09-09T04:30:00Z,29.0600,-88.0900,122.0,6.0,126.0,99.0,'11111222,11111222,11144222' 
ADCP,ioos:station:wmo:42364:1,2016-09-09T05:30:00Z,29.0600,-88.0900,122.0,5.2,115.0,99.0,'11111222,11111222,11144222' 
ADCP,ioos:station:wmo:42364:1,2016-09-09T06:30:00Z,29.0600,-88.0900,122.0,4.8,113.0,99.0,'11111222,11111222,11144222' 
ADCP,ioos:station:wmo:42364:1,2016-09-09T07:30:00Z,29.0600,-88.0900,122.0,3.9,112.0,99.0,'11111222,11111222,11144222' 
ADCP,ioos:station:wmo:42364:1,2016-09-09T08:30:00Z,29.0600,-88.0900,122.0,3.2,123.0,99.0,'11111222,11111222,11144222' 
ADCP,ioos:station:wmo:42364:1,2016-09-09T09:30:00Z,29.0600,-88.0900,122.0,2.7,116.0,99.0,'11111222,11111222,11144222' 
ADCP,ioos:station:wmo:42364:1,2016-09-09T10:30:00Z,29.0600,-88.0900,122.0,2.9,111.0,99.0,'11111222,11111222,11144222' 